Flag for U.S.A. Weather past 2 weeks in Rockford, Illinois, U.S.A.

Now
56 °F

Partly sunny.


Feels Like: 53 °F
Forecast: 39 / 53 °F
Wind: 12 mph from Northeast

Location: Greater Rockford Airport

Current Time: Oct 20, 2014 at 7:35:55 PM

Latest Report: Oct 20, 2014 at 6:54 PM


Visibility: 10 mi

Pressure: 30.00 "Hg

Humidity: 55%

Dew point: 40 °F

Location of RockfordLocation

Historic Weather in Rockford — Graph

°F

Rockford temperature yesterday

Maximum temperature yesterday: 59 °F (at 3:54 PM)
Minimum temperature yesterday: 32 °F (at 4:54 AM)
Average temperature yesterday: 45 °F

Past Weeks' High & Low Weather Summary

 TemperatureHumidityPressure
High67 °F (Oct 13, 6:54 PM)96% (Oct 13, 12:54 AM)30.29 "Hg (Oct 13, 12:54 AM)
Low32 °F (Oct 19, 4:54 AM)30% (Oct 9, 1:54 PM)27.01 "Hg (Oct 17, 4:00 AM)
Average52 °F73%29.89 "Hg
* Reported Oct 5 5:54 PM — Oct 20 5:54 PM, Rockford, Weather by CustomWeather, © 2014

Note: Actual official high and low records may vary slightly from our data, if they occured in-between our weather recording intervals... More about our weather records

Advertising

Rockford weather history for previous 24 hours

 ConditionsComfort  
Time TempWeatherWind HumidityBarometerVisibility
5:54 PM
Oct 20
58 °FPartly sunny.13 mph54%29.97 "Hg10 mi
4:54 PM60 °FPartly sunny.12 mph49%29.94 "Hg10 mi
3:54 PM64 °FPartly sunny.20 mph45%29.91 "Hg10 mi
2:54 PM63 °FScattered clouds.15 mph45%29.90 "Hg10 mi
1:54 PM63 °FScattered clouds.12 mph48%29.89 "Hg10 mi
12:54 PM63 °FScattered clouds.15 mph48%29.90 "Hg10 mi
11:54 AM63 °FPassing clouds.13 mph54%29.91 "Hg10 mi
10:54 AM59 °FSunny.12 mph62%29.90 "Hg10 mi
9:54 AM55 °FPassing clouds.14 mph69%29.91 "Hg10 mi
8:54 AM51 °FPassing clouds.13 mph77%29.89 "Hg10 mi
7:54 AM47 °FPassing clouds.7 mph83%29.87 "Hg10 mi
6:54 AM45 °FPassing clouds.7 mph86%29.85 "Hg10 mi
5:54 AM46 °FClear.3 mph83%29.83 "Hg10 mi
4:54 AM47 °FPassing clouds.7 mph83%29.82 "Hg10 mi
3:54 AM47 °FPassing clouds.7 mph83%29.83 "Hg10 mi
2:54 AM47 °FClear.7 mph83%29.85 "Hg10 mi
1:54 AM48 °FClear.8 mph80%29.85 "Hg10 mi
12:54 AM48 °FClear.9 mph80%29.88 "Hg10 mi
11:54 PM
Oct 19
48 °FClear.9 mph80%29.90 "Hg10 mi
9:54 PM49 °FPassing clouds.9 mph77%29.95 "Hg10 mi
8:54 PM52 °FPassing clouds.12 mph69%29.95 "Hg10 mi
7:54 PM52 °FPassing clouds.10 mph69%29.96 "Hg10 mi
Weather by CustomWeather, © 2014

See weather overviewHow to use our weather pages